When you browse on this site, cookies collect data to enhance your experience and personalize the content and advertising you see.
Visit our Privacy Policy to learn more. By continuing to use the site, you agree to this use of cookies and data.
EN

Hourly Weather Golabek

Today, 24 September, Thursday

Time Temperature Precipitation Wind Pressure Humidity
00:00 +17°C° 0 mm 3 mps 741 mmHg 72%
01:00 +16°C° 0 mm 3 mps 741 mmHg 73%
02:00 +16°C° 0 mm 3 mps 741 mmHg 74%
03:00 +16°C° 0 mm 3 mps 741 mmHg 75%
04:00 +14°C° 0 mm 3 mps 741 mmHg 76%
05:00 +16°C° 0 mm 3 mps 741 mmHg 74%
06:00 +16°C° 0 mm 3 mps 741 mmHg 72%
07:00 +17°C° 0 mm 3 mps 741 mmHg 70%
08:00 +19°C° 0 mm 4 mps 741 mmHg 65%
09:00 +21°C° 0 mm 4 mps 741 mmHg 60%
10:00 +23°C° 0 mm 4 mps 742 mmHg 54%
11:00 +23°C° 0 mm 4 mps 741 mmHg 53%
12:00 +25°C° 0 mm 3 mps 741 mmHg 52%
13:00 +25°C° 0 mm 3 mps 741 mmHg 50%
14:00 +25°C° 0 mm 2 mps 741 mmHg 53%
15:00 +24°C° 0 mm 2 mps 741 mmHg 55%
16:00 +24°C° 0 mm 1 mps 741 mmHg 57%
17:00 +22°C° 0.2 mm 1 mps 741 mmHg 61%
18:00 +21°C° 0.2 mm 1 mps 741 mmHg 66%
19:00 +19°C° 0.2 mm 2 mps 741 mmHg 70%
20:00 +18°C° 0.3 mm 2 mps 741 mmHg 73%
21:00 +18°C° 0.3 mm 2 mps 741 mmHg 76%
22:00 +17°C° 0.3 mm 2 mps 741 mmHg 79%
23:00 +17°C° 0 mm 2 mps 741 mmHg 81%

Tomorrow, 25 September, Friday

Time Temperature Precipitation Wind Pressure Humidity
00:00 +17°C° 0 mm 2 mps 741 mmHg 83%
01:00 +16°C° 0 mm 2 mps 740 mmHg 85%
02:00 +16°C° 0 mm 2 mps 740 mmHg 86%
03:00 +16°C° 0 mm 2 mps 740 mmHg 87%
04:00 +14°C° 0 mm 3 mps 739 mmHg 88%
05:00 +16°C° 0 mm 3 mps 739 mmHg 86%
06:00 +15°C° 0 mm 4 mps 739 mmHg 84%
07:00 +17°C° 0 mm 4 mps 738 mmHg 82%
08:00 +19°C° 0 mm 5 mps 738 mmHg 75%
09:00 +20°C° 0 mm 6 mps 738 mmHg 68%
10:00 +22°C° 0 mm 7 mps 738 mmHg 61%
11:00 +23°C° 0 mm 7 mps 737 mmHg 57%
12:00 +24°C° 0 mm 7 mps 737 mmHg 54%
13:00 +26°C° 0 mm 7 mps 736 mmHg 51%
14:00 +24°C° 0.1 mm 7 mps 736 mmHg 53%
15:00 +24°C° 0.1 mm 6 mps 736 mmHg 55%
16:00 +25°C° 0.1 mm 5 mps 735 mmHg 57%
17:00 +22°C° 0.3 mm 5 mps 735 mmHg 63%
18:00 +21°C° 0.3 mm 5 mps 735 mmHg 68%
19:00 +19°C° 0.3 mm 5 mps 735 mmHg 74%
20:00 +19°C° 0.5 mm 5 mps 735 mmHg 76%
21:00 +19°C° 0.5 mm 4 mps 735 mmHg 78%
22:00 +19°C° 0.5 mm 4 mps 735 mmHg 80%
23:00 +18°C° 0.2 mm 4 mps 735 mmHg 82%

Day after tomorrow, 26 September, Saturday

Time Temperature Precipitation Wind Pressure Humidity
00:00 +18°C° 0.2 mm 3 mps 735 mmHg 83%
01:00 +18°C° 0.2 mm 3 mps 735 mmHg 85%
02:00 +17°C° 0 mm 3 mps 734 mmHg 85%
03:00 +17°C° 0 mm 3 mps 734 mmHg 85%
04:00 +17°C° 0 mm 3 mps 734 mmHg 85%
05:00 +17°C° 0 mm 3 mps 734 mmHg 84%
06:00 +17°C° 0 mm 4 mps 734 mmHg 83%
07:00 +18°C° 0 mm 4 mps 734 mmHg 83%
08:00 +18°C° 0 mm 4 mps 734 mmHg 80%
09:00 +17°C° 0 mm 5 mps 734 mmHg 78%
10:00 +19°C° 0 mm 5 mps 734 mmHg 76%
11:00 +20°C° 0 mm 6 mps 734 mmHg 73%
12:00 +21°C° 0 mm 6 mps 734 mmHg 70%
13:00 +22°C° 0 mm 7 mps 734 mmHg 68%
14:00 +22°C° 0 mm 7 mps 734 mmHg 67%
15:00 +22°C° 0 mm 6 mps 733 mmHg 66%
16:00 +22°C° 0 mm 6 mps 733 mmHg 65%
17:00 +22°C° 0.6 mm 6 mps 733 mmHg 68%
18:00 +21°C° 0.6 mm 6 mps 733 mmHg 70%
19:00 +20°C° 0.6 mm 7 mps 734 mmHg 73%
20:00 +21°C° 0 mm 7 mps 734 mmHg 69%
21:00 +21°C° 0 mm 7 mps 734 mmHg 65%
22:00 +21°C° 0 mm 8 mps 734 mmHg 61%
23:00 +20°C° 0 mm 7 mps 733 mmHg 61%

27 September, Sunday

Time Temperature Precipitation Wind Pressure Humidity
00:00 +20°C° 0 mm 7 mps 733 mmHg 62%
01:00 +18°C° 0 mm 7 mps 732 mmHg 62%
02:00 +18°C° 0 mm 7 mps 732 mmHg 61%
03:00 +18°C° 0 mm 7 mps 732 mmHg 61%
04:00 +18°C° 0 mm 8 mps 732 mmHg 60%
05:00 +18°C° 0 mm 8 mps 732 mmHg 61%
06:00 +18°C° 0 mm 8 mps 732 mmHg 63%
07:00 +19°C° 0 mm 9 mps 732 mmHg 64%
08:00 +19°C° 0.1 mm 9 mps 733 mmHg 65%
09:00 +19°C° 0.1 mm 9 mps 733 mmHg 66%
10:00 +18°C° 0.1 mm 9 mps 733 mmHg 66%
11:00 +18°C° 0.1 mm 9 mps 733 mmHg 67%
12:00 +18°C° 0.1 mm 9 mps 733 mmHg 67%
13:00 +18°C° 0.1 mm 10 mps 733 mmHg 68%
14:00 +18°C° 0.1 mm 10 mps 733 mmHg 70%
15:00 +18°C° 0.1 mm 10 mps 733 mmHg 72%
16:00 +17°C° 0.1 mm 10 mps 733 mmHg 74%
17:00 +17°C° 0.1 mm 9 mps 734 mmHg 76%
18:00 +17°C° 0.1 mm 8 mps 734 mmHg 77%
19:00 +17°C° 0.1 mm 7 mps 735 mmHg 79%
20:00 +15°C° 0 mm 6 mps 735 mmHg 81%
21:00 +14°C° 0 mm 5 mps 736 mmHg 83%
22:00 +12°C° 0 mm 4 mps 736 mmHg 85%
23:00 +12°C° 0 mm 4 mps 737 mmHg 83%

28 September, Monday

Time Temperature Precipitation Wind Pressure Humidity
00:00 +12°C° 0 mm 4 mps 737 mmHg 82%
01:00 +11°C° 0 mm 4 mps 738 mmHg 81%
02:00 +11°C° 0 mm 4 mps 738 mmHg 80%
03:00 +11°C° 0 mm 4 mps 739 mmHg 80%
04:00 +11°C° 0 mm 4 mps 739 mmHg 79%
05:00 +10°C° 0 mm 4 mps 739 mmHg 78%
06:00 +10°C° 0 mm 4 mps 740 mmHg 78%
07:00 +10°C° 0 mm 4 mps 740 mmHg 78%
08:00 +11°C° 0 mm 4 mps 741 mmHg 71%
09:00 +12°C° 0 mm 4 mps 741 mmHg 65%
10:00 +14°C° 0 mm 4 mps 741 mmHg 59%
11:00 +14°C° 0 mm 5 mps 742 mmHg 58%
12:00 +14°C° 0 mm 5 mps 742 mmHg 57%
13:00 +15°C° 0 mm 5 mps 742 mmHg 56%
14:00 +15°C° 0 mm 5 mps 742 mmHg 56%
15:00 +15°C° 0 mm 4 mps 742 mmHg 56%
16:00 +15°C° 0 mm 4 mps 742 mmHg 55%
17:00 +13°C° 0 mm 3 mps 742 mmHg 59%
18:00 +12°C° 0 mm 3 mps 742 mmHg 63%
19:00 +12°C° 0 mm 2 mps 742 mmHg 67%
20:00 +12°C° 0 mm 2 mps 742 mmHg 68%
21:00 +10°C° 0 mm 2 mps 742 mmHg 69%
22:00 +10°C° 0 mm 3 mps 742 mmHg 70%
23:00 +10°C° 0 mm 3 mps 742 mmHg 70%

29 September, Tuesday

Time Temperature Precipitation Wind Pressure Humidity
00:00 +10°C° 0 mm 3 mps 742 mmHg 71%
01:00 +10°C° 0 mm 3 mps 741 mmHg 72%
02:00 +11°C° 0 mm 3 mps 741 mmHg 74%
03:00 +11°C° 0 mm 3 mps 741 mmHg 76%
04:00 +11°C° 0 mm 3 mps 740 mmHg 79%
05:00 +11°C° 1.1 mm 4 mps 740 mmHg 84%
06:00 +11°C° 1.1 mm 4 mps 740 mmHg 89%
07:00 +11°C° 1.1 mm 4 mps 739 mmHg 94%
08:00 +11°C° 1 mm 4 mps 739 mmHg 94%
09:00 +11°C° 1 mm 4 mps 739 mmHg 95%
10:00 +12°C° 1 mm 3 mps 739 mmHg 95%
11:00 +12°C° 2.3 mm 3 mps 739 mmHg 94%
12:00 +13°C° 2.3 mm 3 mps 739 mmHg 94%
13:00 +13°C° 2.3 mm 3 mps 739 mmHg 93%
14:00 +13°C° 0.6 mm 3 mps 739 mmHg 92%
15:00 +14°C° 0.6 mm 2 mps 740 mmHg 91%
16:00 +14°C° 0.6 mm 2 mps 740 mmHg 91%
17:00 +14°C° 0.2 mm 2 mps 740 mmHg 92%
18:00 +12°C° 0.2 mm 3 mps 740 mmHg 92%
19:00 +12°C° 0.2 mm 3 mps 741 mmHg 93%
20:00 +12°C° 0 mm 3 mps 741 mmHg 94%
21:00 +12°C° 0 mm 4 mps 741 mmHg 95%
22:00 +11°C° 0 mm 4 mps 741 mmHg 95%
23:00 +11°C° 0 mm 4 mps 741 mmHg 95%
Show more